Mountain Home, ID

3:21 PM MDT on September 20, 2017 (GMT -0600)
Mountain Home Air Force Base

Weather History for KMUO - September, 2013

Change the Weather History Date:

Monday, September 2, 2013

  Actual Average Record
Temperature  
Mean Temperature 78 °F 69 °F  
Max Temperature 91 °F 86 °F 103 °F (1955)
Min Temperature 64 °F 51 °F 35 °F (1951)
Degree Days  
Heating Degree Days 0 1  
Month to date heating degree days 0 2  
Cooling Degree Days 13 6  
Month to date cooling degree days 26 12  
Growing Degree Days 28 (Base 50)    
Moisture  
Dew Point 45 °F    
Average Humidity 34    
Maximum Humidity 77    
Minimum Humidity 20    
Precipitation  
Precipitation T in 0.01 in 0.22 in (1964)
Month to date precipitation T 0.02  
Sea Level Pressure  
Sea Level Pressure 29.84 in    
Wind  
Wind Speed 7 mph (NW)    
Max Wind Speed 22 mph    
Max Gust Speed 29 mph    
Visibility 10 miles    
Events      
T = Trace of Precipitation, MM = Missing Value Source: NWS Daily Summary

Daily Weather History Graph

Daily Weather History Graph

Search for Another Location

Airport or City:

Trip Planner

Search our weather history database for the weather conditions in past years. The results will help you decide how hot, cold, wet, or windy it might be!

Date:

Astronomy

Sep. 02, 2013 Rise Set
Actual Time 7:09 AM MDT 8:15 PM MDT
Civil Twilight 6:40 AM MDT 8:44 PM MDT
Nautical Twilight 6:05 AM MDT 9:19 PM MDT
Astronomical Twilight 5:28 AM MDT 9:56 PM MDT
Moon 4:27 AM MDT (9/2) 6:33 PM MDT (9/2)
Length of Visible Light 14h 04m
Length of Day
13h 06m
Waning Crescent, 7% of the Moon is Illuminated
Sep 2
Waning Crescent
Sep 5
New
Sep 12
First Quarter
Sep 19
Full
Sep 26
Last Quarter

Hourly Weather History & Observations

Time (MDT) Temp. Heat Index Dew Point Humidity Pressure Visibility Wind Dir Wind Speed Gust Speed Precip Events Conditions
12:58 AM 77.0 °F - 38.3 °F 25% 29.76 in 10.0 mi WNW 5.8 mph - N/A   Mostly Cloudy
1:58 AM 77.2 °F - 36.3 °F 23% 29.75 in 10.0 mi Calm Calm - N/A   Mostly Cloudy
2:58 AM 71.8 °F - 36.5 °F 28% 29.77 in 10.0 mi WNW 4.6 mph - N/A   Partly Cloudy
3:58 AM 72.3 °F - 36.0 °F 26% 29.77 in 10.0 mi NW 3.5 mph - N/A   Clear
4:58 AM 73.8 °F - 35.8 °F 25% 29.77 in 10.0 mi NE 2.3 mph - N/A   Overcast
5:58 AM 71.1 °F - 37.4 °F 29% 29.77 in 10.0 mi SW 5.8 mph - N/A   Overcast
6:58 AM 72.9 °F - 38.5 °F 29% 29.79 in 10.0 mi WNW 10.4 mph - N/A   Scattered Clouds
7:58 AM 72.1 °F - 39.0 °F 30% 29.84 in 10.0 mi NE 9.2 mph - N/A   Mostly Cloudy
8:58 AM 73.9 °F - 39.4 °F 29% 29.85 in 10.0 mi NE 4.6 mph - N/A   Overcast
9:58 AM 77.2 °F - 42.8 °F 29% 29.86 in 10.0 mi NNW 11.5 mph - N/A   Mostly Cloudy
10:58 AM 82.4 °F - 48.9 °F 31% 29.87 in 10.0 mi WNW 13.8 mph - N/A   Mostly Cloudy
11:58 AM 85.3 °F - 48.0 °F 27% 29.87 in 10.0 mi NW 13.8 mph 18.4 mph N/A   Mostly Cloudy
12:58 PM 84.9 °F - 47.8 °F 27% 29.86 in 10.0 mi WNW 10.4 mph - N/A   Overcast
1:58 PM 85.3 °F - 47.3 °F 27% 29.86 in 10.0 mi NW 11.5 mph - N/A   Mostly Cloudy
2:58 PM 88.0 °F - 45.7 °F 23% 29.84 in 10.0 mi North 10.4 mph - N/A   Partly Cloudy
3:58 PM 90.7 °F - 43.7 °F 20% 29.82 in 10.0 mi North 6.9 mph - N/A   Clear
4:58 PM 90.7 °F - 43.7 °F 20% 29.79 in 10.0 mi Variable 6.9 mph - N/A   Clear
5:58 PM 89.4 °F - 43.3 °F 20% 29.81 in 10.0 mi NNW 9.2 mph - N/A   Scattered Clouds
6:58 PM 88.5 °F - 45.7 °F 23% 29.81 in 10.0 mi NW 18.4 mph - N/A   Scattered Clouds
7:58 PM 80.8 °F 80.4 °F 53.4 °F 39% 29.87 in 5.0 mi NW 21.9 mph 28.8 mph N/A   Haze
8:58 PM 73.4 °F - 59.0 °F 61% 29.92 in 10.0 mi North 4.6 mph - 0.00 in   Partly Cloudy
9:58 PM 71.4 °F - 59.2 °F 65% 29.94 in 10.0 mi NNW 5.8 mph - N/A   Mostly Cloudy
10:58 PM 67.5 °F - 59.4 °F 75% 29.94 in 10.0 mi SW 3.5 mph - N/A   Partly Cloudy
11:58 PM 65.5 °F - 58.3 °F 77% 29.94 in 10.0 mi WSW 5.8 mph - N/A   Partly Cloudy